Weather History for Kimball, NE

Change the Weather History Date:

Wednesday, April 3, 2013

  Actual Average (KSNY) Record (KSNY)
Temperature  
Mean Temperature 46 °F 43 °F  
Max Temperature 63 °F 58 °F 78 °F (1996)
Min Temperature 28 °F 29 °F -8 °F (1975)
Degree Days  
Heating Degree Days 20 22  
Month to date heating degree days 66  
Since 1 July heating degree days 5451  
Cooling Degree Days 0 0  
Month to date cooling degree days 0  
Year to date cooling degree days 0  
Moisture  
Dew Point 31 °F    
Average Humidity 66    
Maximum Humidity 99    
Minimum Humidity 20    
Precipitation  
Precipitation 0.00 in 0.04 in 2.13 in (1986)
Month to date precipitation 0.14  
Year to date precipitation 1.76  
Sea Level Pressure  
Sea Level Pressure 30.07 in    
Wind  
Wind Speed 8 mph (SSW)    
Max Wind Speed 15 mph    
Max Gust Speed 17 mph    
Visibility 9 miles    
Events Fog    
T = Trace of Precipitation, MM = Missing Value Source: NWS Daily Summary

Daily Weather History Graph

Daily Weather History Graph

Search for Another Location

Airport:

Trip Planner

Search our weather history database for the weather conditions in past years. The results will help you decide how hot, cold, wet, or windy it might be!

Date:

Astronomy

Apr. 03, 2013 Rise Set
Actual Time 7:34 AM CDT 8:22 PM CDT
Civil Twilight 7:06 AM CDT 8:50 PM CDT
Nautical Twilight 6:33 AM CDT 9:23 PM CDT
Astronomical Twilight 5:58 AM CDT 9:57 PM CDT
Moon 3:20 AM CDT (4/3) 1:33 PM CDT (4/3)
Length of Visible Light 13h 43m
Length of Day
12h 48m
Last Quarter, 44% of the Moon is Illuminated
Apr 3
Last Quarter
Apr 10
New
Apr 18
First Quarter
Apr 25
Full
May 2
Last Quarter

Hourly Weather History & Observations

Time (CDT) Temp. Windchill Dew Point Humidity Pressure Visibility Wind Dir Wind Speed Gust Speed Precip Events Conditions
12:15 AM 29.7 °F 22.0 °F 27.5 °F 92% 30.12 in 10.0 mi South 8.1 mph - N/A   Clear
12:35 AM 29.3 °F 21.5 °F 27.5 °F 93% 30.12 in 10.0 mi South 8.1 mph - N/A   Clear
12:55 AM 29.5 °F 21.8 °F 27.7 °F 93% 30.11 in 10.0 mi South 8.1 mph - N/A   Clear
1:15 AM 29.3 °F 24.3 °F 27.5 °F 93% 30.11 in 10.0 mi South 4.6 mph - N/A   Clear
1:35 AM 28.8 °F 21.7 °F 27.1 °F 94% 30.11 in 10.0 mi South 6.9 mph - N/A   Clear
1:55 AM 29.5 °F 22.5 °F 28.0 °F 94% 30.10 in 10.0 mi South 6.9 mph - N/A   Clear
2:15 AM 30.7 °F 22.6 °F 29.1 °F 94% 30.10 in 10.0 mi SSW 9.2 mph - N/A   Clear
2:35 AM 29.3 °F 20.8 °F 27.5 °F 93% 30.10 in 10.0 mi SSW 9.2 mph - N/A   Clear
2:55 AM 28.9 °F 22.8 °F 27.1 °F 93% 30.10 in 10.0 mi SW 5.8 mph - N/A   Clear
3:15 AM 28.9 °F 23.9 °F 27.0 °F 92% 30.10 in 10.0 mi West 4.6 mph - N/A   Clear
3:35 AM 29.3 °F 23.2 °F 27.5 °F 93% 30.09 in 10.0 mi WSW 5.8 mph - N/A   Scattered Clouds
3:55 AM 28.9 °F 22.8 °F 27.1 °F 93% 30.10 in 10.0 mi West 5.8 mph - N/A   Scattered Clouds
4:15 AM 30.0 °F - 28.9 °F 96% 30.10 in 0.5 mi Calm Calm - N/A Fog Light Freezing Fog
4:35 AM 32.0 °F 25.6 °F 31.1 °F 96% 30.10 in 0.8 mi SW 6.9 mph - N/A   Overcast
4:55 AM 32.0 °F 25.6 °F 31.6 °F 99% 30.09 in 0.5 mi SW 6.9 mph - N/A Fog Fog
5:15 AM 32.9 °F 24.7 °F 32.0 °F 96% 30.10 in 1.0 mi SSW 10.4 mph - N/A   Overcast
5:35 AM 33.8 °F 27.7 °F 32.9 °F 96% 30.10 in 2.0 mi SSW 6.9 mph - N/A   Overcast
5:55 AM 33.8 °F 27.7 °F 32.9 °F 96% 30.10 in 3.0 mi SW 6.9 mph - N/A   Overcast
6:15 AM 34.0 °F 28.0 °F 33.1 °F 96% 30.10 in 3.0 mi SW 6.9 mph - N/A   Overcast
6:35 AM 34.7 °F 26.9 °F 33.6 °F 96% 30.10 in 5.0 mi SW 10.4 mph - N/A   Overcast
6:55 AM 34.7 °F 26.4 °F 33.1 °F 94% 30.10 in 5.0 mi SSW 11.5 mph - N/A   Overcast
7:15 AM 34.7 °F 25.9 °F 32.9 °F 93% 30.10 in 7.0 mi SSW 12.7 mph - N/A   Overcast
7:35 AM 34.7 °F 26.4 °F 32.5 °F 92% 30.11 in 7.0 mi SW 11.5 mph - N/A   Overcast
7:55 AM 34.7 °F 28.1 °F 32.9 °F 93% 30.12 in 5.0 mi SSW 8.1 mph - N/A   Overcast
8:15 AM 34.7 °F 27.5 °F 32.4 °F 91% 30.11 in 5.0 mi SSW 9.2 mph - N/A   Overcast
8:35 AM 34.7 °F 26.4 °F 32.9 °F 93% 30.11 in 4.0 mi South 11.5 mph - N/A   Overcast
8:55 AM 35.2 °F 27.1 °F 32.9 °F 91% 30.11 in 5.0 mi SW 11.5 mph - N/A   Overcast
9:15 AM 35.4 °F 28.4 °F 32.5 °F 89% 30.11 in 5.0 mi SSW 9.2 mph - N/A   Overcast
9:35 AM 36.3 °F 29.5 °F 32.9 °F 87% 30.12 in 7.0 mi SW 9.2 mph - N/A   Overcast
9:55 AM 37.4 °F 30.3 °F 32.9 °F 84% 30.12 in 10.0 mi SW 10.4 mph - N/A   Overcast
10:15 AM 38.1 °F 30.7 °F 33.1 °F 82% 30.12 in 10.0 mi SW 11.5 mph - N/A   Overcast
10:35 AM 39.7 °F 32.3 °F 33.6 °F 79% 30.10 in 10.0 mi SW 12.7 mph - N/A   Overcast
10:55 AM 42.1 °F 35.2 °F 33.8 °F 72% 30.11 in 10.0 mi SW 12.7 mph - N/A   Overcast
11:15 AM 43.7 °F 37.3 °F 34.0 °F 69% 30.10 in 10.0 mi SW 12.7 mph - N/A   Scattered Clouds
11:35 AM 45.7 °F 40.6 °F 33.8 °F 63% 30.10 in 10.0 mi SW 10.4 mph 16.1 mph N/A   Clear
11:55 AM 47.5 °F - 34.0 °F 59% 30.09 in 10.0 mi SSW 11.5 mph 17.3 mph N/A   Clear
12:15 PM 48.7 °F - 34.0 °F 57% 30.09 in 10.0 mi SSW 11.5 mph 16.1 mph N/A   Clear
12:35 PM 50.5 °F - 34.2 °F 53% 30.09 in 10.0 mi SW 9.2 mph 16.1 mph N/A   Clear
12:55 PM 51.8 °F - 33.8 °F 50% 30.08 in 10.0 mi South 5.8 mph 16.1 mph N/A   Clear
1:15 PM 53.8 °F - 33.8 °F 47% 30.08 in 10.0 mi SW 6.9 mph - N/A   Clear
1:35 PM 54.5 °F - 33.1 °F 44% 30.07 in 10.0 mi SW 9.2 mph - N/A   Clear
1:55 PM 55.2 °F - 32.7 °F 43% 30.06 in 10.0 mi SW 5.8 mph - N/A   Clear
2:15 PM 56.3 °F - 32.4 °F 40% 30.06 in 10.0 mi SW 6.9 mph - N/A   Clear
2:35 PM 57.4 °F - 32.0 °F 38% 30.05 in 10.0 mi SSW 5.8 mph - N/A   Clear
2:55 PM 58.6 °F - 31.1 °F 35% 30.04 in 10.0 mi SSE 8.1 mph - N/A   Clear
3:15 PM 59.2 °F - 30.9 °F 34% 30.04 in 10.0 mi South 8.1 mph - N/A   Clear
3:35 PM 59.9 °F - 28.8 °F 31% 30.04 in 10.0 mi South 4.6 mph - N/A   Clear
3:55 PM 61.3 °F - 28.0 °F 28% 30.04 in 10.0 mi SSE 5.8 mph - N/A   Clear
4:15 PM 61.2 °F - 25.9 °F 26% 30.03 in 10.0 mi Calm Calm - N/A   Clear
4:35 PM 61.0 °F - 23.4 °F 24% 30.02 in 10.0 mi SE 4.6 mph - N/A   Clear
4:55 PM 61.9 °F - 22.6 °F 22% 30.01 in 10.0 mi SW 5.8 mph - N/A   Clear
5:15 PM 63.5 °F - 20.8 °F 20% 30.01 in 10.0 mi SE 4.6 mph - N/A   Clear
5:35 PM 62.8 °F - 23.0 °F 22% 30.01 in 10.0 mi Calm Calm - N/A   Clear
5:55 PM 63.0 °F - 25.2 °F 24% 30.00 in 10.0 mi SSE 8.1 mph - N/A   Clear
6:15 PM 62.8 °F - 25.0 °F 24% 30.00 in 10.0 mi South 8.1 mph - N/A   Clear
6:35 PM 62.1 °F - 27.0 °F 26% 30.00 in 10.0 mi SSE 8.1 mph - N/A   Clear
6:55 PM 61.2 °F - 29.1 °F 30% 30.00 in 10.0 mi SSE 13.8 mph - N/A   Clear
7:15 PM 59.5 °F - 30.0 °F 33% 30.01 in 10.0 mi SSE 15.0 mph - N/A   Clear
7:35 PM 58.1 °F - 29.8 °F 34% 30.01 in 10.0 mi SSE 13.8 mph - N/A   Clear
7:55 PM 55.8 °F - 30.7 °F 39% 30.01 in 10.0 mi SSE 11.5 mph - N/A   Clear
8:15 PM 53.2 °F - 31.8 °F 44% 30.02 in 10.0 mi South 11.5 mph - N/A   Clear
8:35 PM 50.2 °F - 32.0 °F 50% 30.02 in 10.0 mi South 9.2 mph - N/A   Clear
8:55 PM 48.2 °F - 32.0 °F 54% 30.04 in 10.0 mi South 6.9 mph - N/A   Clear
9:15 PM 46.8 °F - 32.0 °F 57% 30.04 in 10.0 mi South 8.1 mph - N/A   Clear
9:35 PM 45.5 °F 41.3 °F 32.0 °F 59% 30.05 in 10.0 mi South 8.1 mph - N/A   Clear
9:55 PM 43.9 °F 39.9 °F 32.0 °F 63% 30.06 in 10.0 mi South 6.9 mph - N/A   Clear
10:15 PM 43.2 °F 38.4 °F 32.0 °F 65% 30.06 in 10.0 mi South 8.1 mph - N/A   Clear
10:35 PM 43.5 °F 38.9 °F 32.0 °F 64% 30.07 in 10.0 mi SW 8.1 mph - N/A   Clear
10:55 PM 42.8 °F 38.6 °F 32.0 °F 66% 30.07 in 10.0 mi SW 6.9 mph - N/A   Scattered Clouds
11:15 PM 42.3 °F 37.3 °F 32.0 °F 67% 30.07 in 10.0 mi SW 8.1 mph - N/A   Clear
11:35 PM 43.5 °F 39.4 °F 31.6 °F 63% 30.07 in 10.0 mi SW 6.9 mph - N/A   Clear
11:55 PM 43.2 °F 37.0 °F 31.1 °F 62% 30.08 in 10.0 mi WSW 11.5 mph - N/A   Clear